Regional Weather Roundup
Issued by NWS

Home | Current Version | Previous Version | Graphics & Text | Print | Product List | Glossary On
Versions: 1 2 3 4 5 6 7 8 9 10 11 12 13 14 15 16 17 18 19 20 21 22 23 24 25 26 27
000
ASUS45 KBOU 292007
RWRCO

WEATHER ROUNDUP FOR COLORADO
NATIONAL WEATHER SERVICE DENVER/BOULDER CO
200 PM MDT MON AUG 29 2016

NOTE: "FAIR" INDICATES FEW OR NO CLOUDS BELOW 12000 FEET WITH NO
SIGNIFICANT WEATHER AND/OR OBSTRUCTIONS TO VISIBILITY.

COZ001>005-013-030-031-292100-
...NORTHWEST COLORADO...

CITY           SKY/WX    TMP DP  RH WIND       PRES   REMARKS
CRAIG          FAIR      80  31  16 E5        30.32F
HAYDEN         FAIR      75  34  22 E7        30.35S
MEEKER         FAIR      79  35  20 VRB3      30.32F
MOUNT WERNER   NOT AVBL
STEAMBOAT SPGS FAIR      77  34  21 SE10      30.36F
WALDEN         FAIR      70  30  23 E14       30.48S
$$

COZ006>008-011-292100-
...WEST CENTRAL VALLEYS...

CITY           SKY/WX    TMP DP  RH WIND       PRES   REMARKS
GRAND JUNCTION FAIR      82  41  23 SE9       30.22F
MONTROSE       FAIR      74  44  34 CALM      30.31F
EAGLE          NOT AVBL
RIFLE          PTSUNNY   73  46  38 SE7       30.30F
DELTA          FAIR      79  42  27 S3        30.27F
NUCLA          FAIR     N/A N/A N/A CALM      30.33F
$$

COZ017>023-064>068-292100-
...SOUTHWEST COLORADO...

CITY           SKY/WX    TMP DP  RH WIND       PRES   REMARKS
DURANGO        PTSUNNY   73  41  31 NW13      30.33F
CORTEZ         FAIR      77  44  30 CALM      30.29F
PAGOSA SPRINGS CLOUDY    60  49  67 E7        30.41S
TELLURIDE      PTSUNNY   61  39  44 SW5       30.51F
WOLF CREEK PAS TSTM      39  36  87 E13       30.71R
$$

COZ009-010-012-014-032>034-037-058>063-292100-
...CENTRAL COLORADO...

CITY           SKY/WX    TMP DP  RH WIND       PRES   REMARKS
ASPEN          FAIR      67  43  41 N8        30.42F
BUENA VISTA    FAIR      68  40  35 CALM      30.44S THUNDER
COPPER MTN     PTSUNNY   57  36  44 CALM      30.70F
BERTHOUD PASS  CLOUDY    43  30  61 E23       30.75S
COTTONWOOD PAS FAIR      64  41  42 E5        30.56S THUNDER
GUNNISON       FAIR      66  37  34 E3        30.44F
KREMMLING      FAIR      64  41  42 N5        30.45F
LEADVILLE      FAIR      53  42  66 S7        30.55F
MONARCH PASS   FAIR      48  36  61 E15       30.77S
SALIDA         FAIR      73  43  33 E8        30.46F
SUNLIGHT       CLOUDY    52  43  71 CALM      30.65F
WILKERSON PASS CLOUDY    45  41  87 E3        30.68F
$$

COZ069>075-292100-
...SAN LUIS VALLEY/SANGRE DE CRISTO MOUNTAINS...

CITY           SKY/WX    TMP DP  RH WIND       PRES   REMARKS
ALAMOSA        FAIR      71  44  37 E8        30.39F
LA VETA PASS   NOT AVBL
SAGUACHE       FAIR      70  43  37 S13G18    30.41F
$$

COZ035-036-038>040-292100-
...NORTHERN COLORADO FRONT RANGE...

CITY           SKY/WX    TMP DP  RH WIND       PRES   REMARKS
DENVER INTL AP PTSUNNY   77  48  35 E18G24    30.29F
DMNS CITY PARK   N/A     69  50  52 SE12G22   30.28R
AURORA         PTSUNNY   74  48  40 SE15      30.31S THUNDER
FRONT RANGE AP PTSUNNY   77  48  36 E15G24      N/A
ERIE MUNI ARPT FAIR      82  38  20 N7        30.27F
BOULDER MUN AP FAIR      84  41  21 SE6       30.28F
CENTENNIAL     PTSUNNY   65  58  78 S13       30.33S THUNDER
BROOMFIELD     PTSUNNY   82  41  23 NE7       30.31F
FORT COLLINS   FAIR      84  43  23 E3        30.24F VSB 1
LONGMONT       FAIR      87  40  19 E3        30.29F
$$

COZ041-046-047-076>085-087-088-292100-
...PIKES PEAK/PALMER DIVIDE AND SOUTHERN FOOTHILLS...

CITY           SKY/WX    TMP DP  RH WIND       PRES   REMARKS
COLO. SPRINGS  TSTM      54  50  86 N20       30.39R FOG
A. F. ACADEMY  TSTM      57  50  78 SE9       30.40R
SCHRIEVER AFB  NOT AVBL
ELLICOTT       NOT AVBL
FALCON         RAIN      53  44  72 NW12G24   30.42S
FORT CARSON    CLOUDY    72  55  56 N13       30.35R
LIMON          FAIR      73  52  47 E15G21    30.32F
MONUMENT HILL  CLOUDY    55  46  71 S3        30.42F
TRINIDAD       PTSUNNY   66  51  58 S6        30.34F
$$

COZ042>045-048>051-090-091-292100-
...NORTHEAST COLORADO...

CITY           SKY/WX    TMP DP  RH WIND       PRES   REMARKS
GREELEY ARPT   FAIR      84  46  26 CALM      30.25F
AKRON          FAIR      78  52  40 SE14      30.28S
BURLINGTON     FAIR      73  54  51 SE16G23   30.29R
WRAY           NOT AVBL
STERLING       FAIR      86  50  28 E3        30.21F
HOLYOKE        FAIR      81  63  54 SE12      30.25S
FORT MORGAN    FAIR      84  48  28 E9        30.26F
$$

COZ086-089-092>099-292100-
...SOUTHEAST COLORADO...

CITY           SKY/WX    TMP DP  RH WIND       PRES   REMARKS
PUEBLO         FAIR      79  55  43 SE12      30.26F
LA JUNTA       FAIR      74  58  57 S9        30.26F
LAMAR          CLOUDY    74  58  57 SE12      30.23F
SPRINGFIELD      N/A     69  57  65 VRB6      30.28F
$$




USA.gov is the U.S. government's official web portal to all federal, state and local government web resources and services.